Overview Statistics Trail Chart Weather Telemetry Raw packets
 

This is the latest recevied weather packets stored in our database for station/object NC4M. If no packets are shown the sender has not sent any weather packets the latest 10 day(s).

<< 12 13 14 15 16 17 18 >>
Time Temp. Humidity Pressure Rain* Wind** Luminosity Snow
1788479127 32.78° C 51% 1013.3 hPa 0 mm - 33 W/m² -
1788478822 32.78° C 49% 1013.2 hPa 0 mm - 48 W/m² -
1788478518 33.33° C 49% 1013.3 hPa 0 mm - 42 W/m² -
1788478214 33.89° C 49% 1013.6 hPa 0 mm - 38 W/m² -
1788477909 33.89° C 46% 1013.6 hPa 0 mm - 41 W/m² -
1788477608 34.44° C 45% 1013.4 hPa 0 mm - 54 W/m² -
1788477303 34.44° C 44% 1013.2 hPa 0 mm - 63 W/m² -
1788476997 34.44° C 44% 1013.3 hPa 0 mm - 77 W/m² -
1788476694 34.44° C 44% 1013.2 hPa 0 mm - 83 W/m² -
1788476390 34.44° C 45% 1013.3 hPa 0 mm - 68 W/m² -
1788476085 35° C 43% 1013.4 hPa 0 mm - 56 W/m² -
1788475781 35° C 43% 1013.4 hPa 0 mm - 90 W/m² -
1788475477 35.56° C 43% 1013.5 hPa 0 mm - 86 W/m² -
1788475173 35.56° C 43% 1013.4 hPa 0 mm - 82 W/m² -
1788474872 36.11° C 42% 1013.3 hPa 0 mm - 87 W/m² -
1788474571 36.11° C 41% 1013.4 hPa 0 mm - 146 W/m² -
1788474266 36.11° C 40% 1013 hPa 0 mm - 122 W/m² -
1788473960 36.67° C 39% 1013.3 hPa 0 mm - 117 W/m² -
1788473660 37.22° C 38% 1013.5 hPa 0 mm - 89 W/m² -
1788473358 37.78° C 38% 1013.2 hPa 0 mm - 219 W/m² -
1788473052 38.33° C 37% 1013.3 hPa 0 mm - 308 W/m² -
1788472749 38.33° C 36% 1013.3 hPa 0 mm - 397 W/m² -
1788472447 38.33° C 36% 1013.5 hPa 0 mm - 437 W/m² -
1788472144 38.33° C 37% 1013.4 hPa 0 mm - 422 W/m² -
1788471841 37.78° C 37% 1013.4 hPa 0 mm - 437 W/m² -

* Rain latest hour (hover to see other rain measurements)
** Current wind speed in m/s (hover to see current wind gust speed)